Date String (YYYY-MM-DD hh:mm:ss) UTC,Instrument flags,absolute air pressure of the measurement (hPa),sample flow rate (lpm),inlet stack bypass flow (lpm),air temperature of the measurement (°C),ambient temperature measured by the external sensor (°C),aerosol sample conditioner tube jacket temperature (°C),OPC LED temperature (°C),internal box temperature (°C),relative humidity of the measurement (%),span deviation,mass concentration of particles derived from Lorenz-Mie calculation of OPC scattering (μg/m³),mass concentration of particles derived from Lorenz-Mie calculation of OPC scattering (μg/m³),mass concentration of particles derived from Lorenz-Mie calculation of OPC scattering (μg/m³)
DateTimeUTC,F1_M11,P_M11,Q1_M11,Q2_M11,T1_M11,T2_M11,T3_M11,T4_M11,T5_M11,U1_M11,ZSPAN_M11,X0_M11,X2_M11,X1_M11
2023-07-10 06:00:00,SystemResetWarning,0832.1,4.99,000.00,029.5,027.9,000.0,038.0,031.0,34.0,0000.0,0013.32,0008.38,0007.84
2023-07-10 06:01:00,SystemResetWarning,0832.1,4.99,000.00,029.5,028.0,000.0,038.0,031.0,34.0,0000.0,0013.62,0008.33,0007.78
2023-07-10 06:02:00,SystemResetWarning,0832.1,5.01,000.00,029.6,028.1,000.0,038.0,031.0,33.9,0000.0,0013.93,0008.27,0007.73
2023-07-10 06:03:00,SystemResetWarning,0832.0,5.00,000.00,029.6,028.2,000.0,038.0,031.1,33.8,0000.0,0013.92,0008.20,0007.68
2023-07-10 06:04:00,SystemResetWarning,0832.0,4.99,000.00,029.6,028.3,000.0,038.1,031.1,33.7,0000.0,0013.90,0008.19,0007.66
2023-07-10 06:05:00,SystemResetWarning,0832.0,5.00,000.00,029.6,028.3,000.0,038.1,031.2,33.6,0000.0,0013.81,0008.14,0007.65
2023-07-10 06:06:00,SystemResetWarning,0832.0,5.02,000.00,029.7,028.4,000.0,038.1,031.2,33.6,-003.2,0013.43,0008.10,0007.64
2023-07-10 06:07:00,SystemResetWarning,0832.0,4.98,000.00,029.7,027.7,000.0,038.0,031.2,33.5,-003.0,0012.86,0008.17,0007.63
2023-07-10 06:08:00,SystemResetWarning,0832.0,5.01,000.00,029.6,025.9,000.0,037.9,031.0,33.5,-002.8,0012.78,0008.12,0007.61
2023-07-10 06:09:00,SystemResetWarning,0832.0,5.01,000.00,029.6,025.3,000.0,037.8,030.7,33.6,-004.3,0012.90,0008.14,0007.61
2023-07-10 06:10:00,SystemResetWarning,0832.0,5.00,000.00,029.4,025.5,000.0,037.9,030.5,33.9,-004.2,0012.89,0008.16,0007.61
2023-07-10 06:11:00,SystemResetWarning,0831.9,5.00,000.00,029.3,025.8,000.0,037.9,030.5,33.9,-003.6,0012.00,0008.15,0007.60
2023-07-10 06:12:00,SystemResetWarning,0831.9,4.98,000.00,029.3,026.2,000.0,037.9,030.6,33.8,-003.4,0011.72,0008.14,0007.58
2023-07-10 06:13:00,SystemResetWarning,0831.9,5.00,000.00,029.3,026.6,000.0,037.9,030.7,33.8,-003.3,0011.24,0008.11,0007.57
2023-07-10 06:14:00,SystemResetWarning,0831.9,5.01,000.00,029.3,027.0,000.0,037.9,030.7,33.9,-003.2,0011.09,0008.09,0007.56
2023-07-10 06:15:00,SystemResetWarning,0831.9,5.01,000.00,029.3,027.2,000.0,037.9,030.8,33.8,-003.0,0011.02,0008.08,0007.55
2023-07-10 06:16:00,SystemResetWarning,0831.9,4.98,000.00,029.3,027.5,000.0,037.9,030.8,33.8,-002.6,0011.63,0008.07,0007.54
2023-07-10 06:17:00,SystemResetWarning,0832.0,5.02,000.00,029.4,027.6,000.0,037.9,030.9,33.6,-002.4,0011.87,0008.11,0007.54
2023-07-10 06:18:00,SystemResetWarning,0831.9,5.01,000.00,029.4,027.8,000.0,037.9,030.9,33.6,-002.2,0011.98,0008.00,0007.52
2023-07-10 06:19:00,SystemResetWarning,0831.9,4.99,000.00,029.4,028.0,000.0,037.9,031.0,33.5,-001.8,0012.70,0007.98,0007.52
2023-07-10 06:20:00,SystemResetWarning,0831.9,4.99,000.00,029.5,028.1,000.0,037.9,031.0,33.5,-001.4,0013.17,0007.95,0007.51
2023-07-10 06:21:00,SystemResetWarning,0831.9,4.99,000.00,029.5,028.2,000.0,038.0,031.1,33.4,-001.4,0013.29,0007.91,0007.49
2023-07-10 06:22:00,SystemResetWarning,0831.9,5.01,000.00,029.5,028.2,000.0,038.0,031.1,33.3,-001.1,0013.43,0007.96,0007.50
2023-07-10 06:23:00,SystemResetWarning,0831.9,5.01,000.00,029.5,028.3,000.0,038.0,031.1,33.2,-001.5,0013.47,0007.98,0007.50
2023-07-10 06:24:00,SystemResetWarning,0831.9,5.01,000.00,029.6,028.4,000.0,038.0,031.2,33.1,-001.1,0013.55,0008.02,0007.52
2023-07-10 06:25:00,SystemResetWarning,0831.9,4.99,000.00,029.6,027.9,000.0,038.0,031.2,33.0,-001.2,0013.64,0008.06,0007.55
2023-07-10 06:26:00,SystemResetWarning,0831.9,4.99,000.00,029.6,026.1,000.0,037.9,030.9,33.1,-001.3,0013.71,0008.10,0007.57
2023-07-10 06:27:00,SystemResetWarning,0832.3,5.01,000.00,029.5,025.3,000.0,037.8,030.7,33.4,-001.1,0013.42,0008.10,0007.58
2023-07-10 06:28:00,SystemResetWarning,0832.0,5.01,000.00,029.4,025.4,000.0,037.8,030.5,33.7,-001.4,0013.52,0008.10,0007.59
2023-07-10 06:29:00,SystemResetWarning,0832.2,5.00,000.00,029.3,025.8,000.0,037.8,030.5,33.9,-001.6,0013.42,0008.14,0007.61
2023-07-10 06:30:00,SystemResetWarning,0832.2,5.00,000.00,029.3,026.2,000.0,037.8,030.5,33.7,-001.6,0012.61,0008.18,0007.62
2023-07-10 06:31:00,SystemResetWarning,0832.2,4.99,000.00,029.3,026.6,000.0,037.8,030.6,33.5,-001.7,0011.98,0008.20,0007.62
2023-07-10 06:32:00,SystemResetWarning,0832.2,5.00,000.00,029.3,026.9,000.0,037.8,030.7,33.5,-002.2,0011.84,0008.23,0007.63
2023-07-10 06:33:00,SystemResetWarning,0832.0,5.01,000.00,029.3,027.2,000.0,037.8,030.7,33.6,-002.1,0011.84,0008.21,0007.64
2023-07-10 06:34:00,SystemResetWarning,0832.2,5.00,000.00,029.3,027.4,000.0,037.8,030.8,33.5,-002.3,0011.93,0008.23,0007.67
2023-07-10 06:35:00,SystemResetWarning,0831.9,5.00,000.00,029.3,027.6,000.0,037.8,030.8,33.4,-002.7,0012.04,0008.25,0007.67
2023-07-10 06:36:00,SystemResetWarning,0831.8,5.01,000.00,029.3,027.8,000.0,037.9,030.9,33.3,-001.8,0012.09,0008.27,0007.67
2023-07-10 06:37:00,SystemResetWarning,0831.8,4.98,000.00,029.3,027.9,000.0,037.9,030.9,33.2,-002.5,0012.13,0008.27,0007.68
2023-07-10 06:38:00,SystemResetWarning,0831.8,5.00,000.00,029.4,028.0,000.0,037.9,031.0,33.2,-003.3,0012.12,0008.31,0007.68
2023-07-10 06:39:00,SystemResetWarning,0831.8,5.00,000.00,029.4,028.1,000.0,037.9,031.0,33.2,-000.1,0011.78,0008.30,0007.68
2023-07-10 06:40:00,SystemResetWarning,0831.8,5.01,000.00,029.4,028.2,000.0,037.9,031.1,33.1,0000.0,0012.34,0008.29,0007.67
2023-07-10 06:41:00,SystemResetWarning,0831.8,5.01,000.00,029.5,028.3,000.0,037.9,031.1,33.0,-001.4,0012.97,0008.27,0007.68
2023-07-10 06:42:00,SystemResetWarning,0831.8,4.99,000.00,029.5,028.3,000.0,037.9,031.1,32.9,0000.0,0013.06,0008.31,0007.70
2023-07-10 06:43:00,SystemResetWarning,0831.9,4.99,000.00,029.5,028.4,000.0,038.0,031.1,32.8,0000.0,0013.12,0008.34,0007.70
2023-07-10 06:44:00,SystemResetWarning,0831.9,5.00,000.00,029.6,028.4,000.0,038.0,031.2,32.8,0000.0,0013.08,0008.35,0007.70
2023-07-10 06:45:00,SystemResetWarning,0831.8,5.00,000.00,029.6,028.2,000.0,038.0,031.2,32.8,0000.0,0012.95,0008.30,0007.67
2023-07-10 06:46:00,SystemResetWarning,0832.2,5.00,000.00,029.6,026.6,000.0,037.9,031.1,33.2,0000.0,0012.84,0008.28,0007.67
2023-07-10 06:47:00,SystemResetWarning,0831.7,5.01,000.00,029.5,025.5,000.0,037.8,030.8,32.7,-001.5,0012.75,0008.26,0007.65
2023-07-10 06:48:00,SystemResetWarning,0831.7,5.01,000.00,029.4,025.3,000.0,037.8,030.5,33.0,0000.0,0012.86,0008.25,0007.64
2023-07-10 06:49:00,SystemResetWarning,0831.7,5.01,000.00,029.3,025.6,000.0,037.8,030.4,33.2,0000.0,0012.90,0008.24,0007.64
2023-07-10 06:50:00,SystemResetWarning,0831.7,4.99,000.00,029.2,026.0,000.0,037.8,030.5,33.2,-000.2,0012.83,0008.22,0007.65
2023-07-10 06:51:00,SystemResetWarning,0831.7,5.00,000.00,029.2,026.4,000.0,037.8,030.6,33.2,0000.0,0012.33,0008.24,0007.64
2023-07-10 06:52:00,SystemResetWarning,0831.7,5.00,000.00,029.2,026.8,000.0,037.8,030.7,33.3,-000.2,0011.58,0008.24,0007.63
2023-07-10 06:53:00,SystemResetWarning,0831.7,5.01,000.00,029.2,027.1,000.0,037.8,030.7,33.3,0000.0,0011.57,0008.25,0007.63
2023-07-10 06:54:00,SystemResetWarning,0831.7,5.00,000.00,029.3,027.3,000.0,037.8,030.8,33.2,0000.0,0011.48,0008.20,0007.62
2023-07-10 06:55:00,SystemResetWarning,0831.7,5.00,000.00,029.3,027.5,000.0,037.8,030.8,33.2,0000.0,0011.60,0008.15,0007.59
2023-07-10 06:56:00,SystemResetWarning,0831.7,5.00,000.00,029.3,027.7,000.0,037.8,030.9,33.2,-000.3,0012.04,0008.12,0007.58
2023-07-10 06:57:00,SystemResetWarning,0831.7,4.99,000.00,029.3,027.8,000.0,037.8,030.9,33.2,-000.9,0011.97,0008.11,0007.56
2023-07-10 06:58:00,SystemResetWarning,0831.7,5.00,000.00,029.3,028.0,000.0,037.8,030.9,33.1,-001.3,0011.89,0008.06,0007.53
2023-07-10 06:59:00,SystemResetWarning,0831.7,5.00,000.00,029.4,028.0,000.0,037.9,031.0,33.0,-001.6,0011.70,0008.01,0007.50
